Prochaines Courses

Connexion

10KM

10 KM SAINT MARTIN du 05/10/14 (Réelle 10,5)
Rang Dossard Nom Prénom Temps Cat Rang Cat Ecart Ecart Cat Club Vitesse Km/h Temps au Km
1 309 GRESSIER JIMMY 00:35:51 CAM 1 00:00:00 00:00:00 ENTENTE MARITIME ATHL. 17,573 03:25
2 26 MONTADOR NICOLAS 00:36:15 SEM 1 00:00:24 00:00:00 ATHLETISME CLUB OUTREAU 17,379 03:27
3 287 PICHONNIER GUILLAUME 00:36:49 SEM 2 00:00:58 00:00:34 ATHLETISME CLUB OUTREAU 17,112 03:30
4 13 FASQUEL DOMINIQUE 00:38:44 V1M 1 00:02:53 00:00:00 ATHLETISME CLUB OUTREAU 16,265 03:41
5 215 BOURDON GILBERT 00:38:50 SEM 3 00:02:59 00:02:35 NON LICENCIE 16,223 03:42
6 256 DUCLOY KEVIN 00:39:25 SEM 4 00:03:34 00:03:10 SAINT MARTIN ATHLETISME 15,983 03:45
7 166 BRUNET MICKAEL 00:39:55 SEM 5 00:04:04 00:03:40 BLANC NEZ TRIATHLON 15,783 03:48
8 334 GOURDIN ERIC 00:40:05 V1M 2 00:04:14 00:01:21 ATHLETISME CLUB OUTREAU 15,717 03:49
9 172 MORIN AYMERIC 00:40:11 SEM 6 00:04:20 00:03:56 WIMEREUX RUNNING CLUB 15,678 03:50
10 248 DEWAGHE CHRISTOPHE 00:40:31 V2M 1 00:04:40 00:00:00 NON LICENCIE 15,549 03:52
11 1 BEAUMONT DENIS 00:40:31 V1M 3 00:04:40 00:01:47 ATHLETISME CLUB OUTREAU 15,549 03:52
12 254 SAUNEUF PHILIPPE 00:40:47 V1M 4 00:04:56 00:02:03 SAINT MARTIN ATHLETISME 15,447 03:53
13 262 LEPRETRE CYRILLE 00:40:47 SEM 7 00:04:56 00:04:32 LE DRAPEAU 15,447 03:53
14 184 DOCQUOIS FREDERIC 00:40:51 V1M 5 00:05:00 00:02:07 LE DRAPEAU 15,422 03:53
15 347 LE BEC MICHAEL 00:41:23 SEM 8 00:05:32 00:05:08 TEAM TRAIL 62 15,224 03:56
16 325 LEROUX GUILLAUME 00:41:27 SEM 9 00:05:36 00:05:12 TEAM TRAIL 62 15,199 03:57
17 49 LOEUILLIEUX STEPHANE 00:41:31 V1M 6 00:05:40 00:02:47 TEAM TRAIL 62 15,175 03:57
18 257 MALFOY BRUNO 00:41:35 V2M 2 00:05:44 00:01:04 NON LICENCIE 15,150 03:58
19 284 REMBUR JULIEN 00:41:49 SEM 10 00:05:58 00:05:34 NON LICENCIE 15,066 03:59
20 301 DELLIEAUX SIMON 00:41:58 SEM 11 00:06:07 00:05:43 ENTENTE MARITIME ATHL. 15,012 04:00
21 6 BRUNEL STEPHANE 00:42:01 V1M 7 00:06:10 00:03:17 ATHLETISME CLUB OUTREAU 14,994 04:00
22 19 LEFEVRE KEVIN 00:42:15 SEM 12 00:06:24 00:06:00 ATHLETISME CLUB OUTREAU 14,911 04:01
23 300 SIX GASPARD 00:42:35 SEM 13 00:06:44 00:06:20 ENTENTE MARITIME ATHL. 14,795 04:03
24 328 PIERRU REYNALD 00:42:54 V1M 8 00:07:03 00:04:10 PATRIOTES DE GUINES 14,685 04:05
25 264 BOURGAIN MICKAEL 00:42:55 SEM 14 00:07:04 00:06:40 OPALE TRAIL NATURE 14,680 04:05
26 59 RAY SAMUEL 00:42:57 V1M 9 00:07:06 00:04:13 NON LICENCIE 14,668 04:05
27 155 LEVEL FABIEN 00:43:01 SEM 15 00:07:10 00:06:46 ATHLETIQUE CLUB CAPELLOIS 14,645 04:06
28 229 DUHAMEL PHILIPPE 00:43:14 V2M 3 00:07:23 00:02:43 NON LICENCIE 14,572 04:07
29 304 PERARD VINCENT 00:43:21 SEM 16 00:07:30 00:07:06 LE DRAPEAU 14,533 04:08
30 56 HALLENNE VALERY 00:43:21 V1M 10 00:07:30 00:04:37 TOUQUET OPALE ATHLETISME 14,533 04:08
31 71 GOBERT LUDOVIC 00:43:22 SEM 17 00:07:31 00:07:07 CS NESLES 14,527 04:08
32 5 BRILLARD SEBASTIEN 00:43:28 SEM 18 00:07:37 00:07:13 ATHLETISME CLUB OUTREAU 14,494 04:08
33 314 RUMEAU MICHAEL 00:43:31 SEM 19 00:07:40 00:07:16 ATHLETIQUE CLUB CAPELLOIS 14,477 04:09
34 77 LEBLOND STEPHANE 00:43:40 SEM 20 00:07:49 00:07:25 NON LICENCIE 14,427 04:10
35 22 LETITRE BRUNO 00:43:47 SEM 21 00:07:56 00:07:32 ATHLETISME CLUB OUTREAU 14,389 04:10
36 190 LEBLOND ARNAUD 00:43:48 SEM 22 00:07:57 00:07:33 LE DRAPEAU 14,384 04:10
37 154 LEFEBVRE MAXENCE 00:43:53 CAM 2 00:08:02 00:08:02 ATHLETIQUE CLUB CAPELLOIS 14,356 04:11
38 4 BOURGAIN SEBASTIEN 00:43:56 SEM 23 00:08:05 00:07:41 ATHLETISME CLUB OUTREAU 14,340 04:11
39 10 DESACHY MARC 00:44:03 V1M 11 00:08:12 00:05:19 ATHLETISME CLUB OUTREAU 14,302 04:12
40 157 NOEL DAVID 00:44:07 V1M 12 00:08:16 00:05:23 ATHLETIQUE CLUB CAPELLOIS 14,280 04:12
41 35 QUANDALLE VINCENT 00:44:14 CAM 3 00:08:23 00:08:23 ATHLETISME CLUB OUTREAU 14,243 04:13
42 240 BERQUEZ CORENTIN 00:44:23 SEM 24 00:08:32 00:08:08 SAINT MARTIN ATHLETISME 14,195 04:14
43 122 DUCROCQ ARNAUD 00:44:24 V1M 13 00:08:33 00:05:40 PATRIOT CROSS GUINES 14,189 04:14
44 70 KUPCZYK MARIAN 00:44:26 SEM 25 00:08:35 00:08:11 NON LICENCIE 14,179 04:14
45 346 DELANNOY BASTIEN 00:44:31 SEM 26 00:08:40 00:08:16 AMICALE HOSPITALIERS BOULOGNE 14,152 04:14
46 212 LELAN ANNE 00:44:32 SEF 1 00:08:41 00:00:00 NON LICENCIE 14,147 04:14
47 41 SCHUPPE CLOTAIRE 00:44:36 V2M 4 00:08:45 00:04:05 A.S. MARCK 14,126 04:15
48 329 DEFOSSE CEDRIC 00:44:37 SEM 27 00:08:46 00:08:22 ESCAP'AVENTURE 14,120 04:15
49 109 DELATTRE JOHANN 00:44:38 SEM 28 00:08:47 00:08:23 ATHLETISME CLUB OUTREAU 14,115 04:15
50 43 LAURENT JOCELYN 00:44:39 V2M 5 00:08:48 00:04:08 NON LICENCIE 14,110 04:15
51 48 DACQUIN FABIEN 00:44:49 V1M 14 00:08:58 00:06:05 TEAM TRAIL 62 14,057 04:16
52 52 LEMAITRE LAURENT 00:44:53 V1M 15 00:09:02 00:06:09 NON LICENCIE 14,036 04:16
53 8 DEBOVE MICHEL 00:44:53 V1M 16 00:09:02 00:06:09 ATHLETISME CLUB OUTREAU 14,036 04:16
54 243 CARDON FLORIAN 00:44:57 JUM 1 00:09:06 00:00:00 LE DRAPEAU 14,016 04:17
55 146 BRIEZ ARNAUD 00:45:01 SEM 29 00:09:10 00:08:46 ATHLETIQUE CLUB CAPELLOIS 13,995 04:17
56 119 PRUVOT LUDOVIC 00:45:07 V1M 17 00:09:16 00:06:23 NON LICENCIE 13,964 04:18
57 32 PERNIN TONY 00:45:10 SEM 30 00:09:19 00:08:55 ATHLETISME CLUB OUTREAU 13,948 04:18
58 81 ETIENNE LEO 00:45:16 JUM 2 00:09:25 00:00:19 NON LICENCIE 13,918 04:19
59 259 HUBARD STEPHANE 00:45:16 SEM 31 00:09:25 00:09:01 NON LICENCIE 13,918 04:19
60 25 MERLIN LOIC 00:45:26 SEM 32 00:09:35 00:09:11 ATHLETISME CLUB OUTREAU 13,866 04:20
61 11 DESEILLE GAUTIER 00:45:30 JUM 3 00:09:39 00:00:33 ATHLETISME CLUB OUTREAU 13,846 04:20
62 306 GRESSIER JESSY 00:45:37 SEM 33 00:09:46 00:09:22 NON LICENCIE 13,811 04:21
63 85 DUCROCQ YVES 00:45:44 V2M 6 00:09:53 00:05:13 NON LICENCIE 13,776 04:21
64 191 TERROIR LAETITIA 00:45:53 SEF 2 00:10:02 00:01:21 LE DRAPEAU 13,730 04:22
65 31 PAINSET THOMAS 00:45:55 SEM 34 00:10:04 00:09:40 ATHLETISME CLUB OUTREAU 13,721 04:22
66 111 VERBREGUE MATTHIEU 00:45:59 SEM 35 00:10:08 00:09:44 NON LICENCIE 13,701 04:23
67 179 TILLIER LUDOVIC 00:46:00 SEM 36 00:10:09 00:09:45 WIMEREUX RUNNING CLUB 13,696 04:23
68 28 MORICE ARNAUD 00:46:02 V1M 18 00:10:11 00:07:18 ATHLETISME CLUB OUTREAU 13,686 04:23
69 110 CHAMPION BRUNO 00:46:02 V1M 19 00:10:11 00:07:18 NON LICENCIE 13,686 04:23
70 130 ENGELS THEO 00:46:04 CAM 4 00:10:13 00:10:13 SPORT PLUS 13,676 04:23
71 131 ENGELS TOM 00:46:05 CAM 5 00:10:14 00:10:14 SPORT PLUS 13,671 04:23
72 351 LASSELLE EDWARD 00:46:06 JUM 4 00:10:15 00:01:09 NON LICENCIE 13,666 04:23
73 196 DAMIENS PHILIPPE 00:46:07 V1M 20 00:10:16 00:07:23 LE DRAPEAU 13,661 04:24
74 64 GODART JEAN-CHRISTOPHE 00:46:12 V1M 21 00:10:21 00:07:28 TEAM TRAIL 62 13,636 04:24
75 126 BORDEZ FRANCK 00:46:13 V2M 7 00:10:22 00:05:42 SPORT PLUS 13,631 04:24
76 168 DAGNEAUX FABIEN 00:46:15 V1M 22 00:10:24 00:07:31 MARQUISE ATHLETISME 13,622 04:24
77 263 ALLEXANDRE GERALD 00:46:20 V1M 23 00:10:29 00:07:36 NON LICENCIE 13,597 04:25
78 265 VIGREUX JEROME 00:46:26 SEM 37 00:10:35 00:10:11   13,568 04:25
79 107 PAYEN JEREMIE 00:46:28 V1M 24 00:10:37 00:07:44 NON LICENCIE 13,558 04:26
80 108 BEAUVOIS CHRISTOPHE 00:46:32 SEM 38 00:10:41 00:10:17 TEAM RAKLETTE 13,539 04:26
81 92 DIEVAL JACQUES 00:46:33 V1M 25 00:10:42 00:07:49 NON LICENCIE 13,534 04:26
82 305 BATILLIOT DOMINIQUE 00:46:47 V1F 1 00:10:56 00:00:00 PATRIOTES DE GUINES 13,466 04:27
83 278 NEMPONT FREDERIC 00:46:50 V1M 26 00:10:59 00:08:06 NON LICENCIE 13,452 04:28
84 330 TEXIER PASCAL 00:46:56 V2M 8 00:11:05 00:06:25 NON LICENCIE 13,423 04:28
85 312 SINNAEVE WILLY 00:46:57 V1M 27 00:11:06 00:08:13 ATHLETISME CLUB OUTREAU 13,419 04:28
86 171 CHEUVA LOIC 00:47:01 V1M 28 00:11:10 00:08:17 WIMEREUX RUNNING CLUB 13,400 04:29
87 186 FLAHAUT DANIEL 00:47:05 V1M 29 00:11:14 00:08:21 LE DRAPEAU 13,381 04:29
88 133 VERITE CEDRIC 00:47:15 SEM 39 00:11:24 00:11:00 SPORT PLUS 13,333 04:30
89 153 LEBON RUDY 00:47:21 SEM 40 00:11:30 00:11:06 ATHLETIQUE CLUB CAPELLOIS 13,305 04:31
90 124 BAILLET CHRISTIAN 00:47:32 V2M 9 00:11:41 00:07:01 SPORT PLUS 13,254 04:32
91 246 LEFRANC OLIVIER 00:47:36 V1M 30 00:11:45 00:08:52 SAINT MARTIN ATHLETISME 13,235 04:32
92 102 CRETON JULIEN 00:47:38 SEM 41 00:11:47 00:11:23 NON LICENCIE 13,226 04:32
93 198 HACQUEL MICHEL 00:47:39 V1M 31 00:11:48 00:08:55 LE DRAPEAU 13,221 04:32
94 298 DELATTAIGNANT ARNAUD 00:47:41 V1M 32 00:11:50 00:08:57 NON LICENCIE 13,212 04:32
95 162 DUFOUR ANTOINE 00:47:46 SEM 42 00:11:55 00:11:31 CS NESLES 13,189 04:33
96 326 LEBECQ LAURENT 00:47:49 SEM 43 00:11:58 00:11:34 TEAM TRAIL 62 13,175 04:33
97 255 BRUNET DENIS 00:47:50 V3M 1 00:11:59 00:00:00 JOGGING CLUB LICQUOIS 13,171 04:33
98 165 VANDENABEELE VIRGINIE 00:47:52 SEF 3 00:12:01 00:03:20 A.S. MARCK 13,162 04:34
99 148 FARNWORTH GRAEME 00:47:55 V1M 33 00:12:04 00:09:11 ATHLETIQUE CLUB CAPELLOIS 13,148 04:34
100 354 DOUILLER VINCENT 00:47:57 V1M 34 00:12:06 00:09:13 NON LICENCIE 13,139 04:34
101 12 DOCQUOIS FLORIAN 00:48:02 JUM 5 00:12:11 00:03:05 ATHLETISME CLUB OUTREAU 13,116 04:34
102 135 BRIMEUX LUDOVIC 00:48:03 SEM 44 00:12:12 00:11:48 AMICALE HOSPITALIERS BOULOGNE 13,111 04:35
103 311 LEMAIRE LOIC 00:48:04 SEM 45 00:12:13 00:11:49 NON LICENCIE 13,107 04:35
104 50 LEBAS ERIC 00:48:04 V1M 35 00:12:13 00:09:20 TEAM TRAIL 62 13,107 04:35
105 244 BADON EMMANUEL 00:48:06 SEM 46 00:12:15 00:11:51 NON LICENCIE 13,098 04:35
106 62 GIGADEN FRANCK 00:48:17 V1M 36 00:12:26 00:09:33 EXTREM TEAM 13,048 04:36
107 113 BAHEUX JEAN MICHEL 00:48:26 V3M 2 00:12:35 00:00:36 NON LICENCIE 13,008 04:37
108 338 RATEL FREDERIC 00:48:29 V1M 37 00:12:38 00:09:45 NON LICENCIE 12,994 04:37
109 36 ROGERE MARC 00:48:34 SEM 47 00:12:43 00:12:19 ATHLETISME CLUB OUTREAU 12,972 04:38
110 7 CARON OLIVIER 00:48:34 SEM 48 00:12:43 00:12:19 ATHLETISME CLUB OUTREAU 12,972 04:38
111 260 JUSTIN LUCIEN 00:48:46 V3M 3 00:12:55 00:00:56 ATHLETISME CLUB OUTREAU 12,919 04:39
112 147 DEMILLY MATTHIEU 00:48:46 SEM 49 00:12:55 00:12:31 ATHLETIQUE CLUB CAPELLOIS 12,919 04:39
113 63 PAINSET NICOLAS 00:48:47 V1M 38 00:12:56 00:10:03 NON LICENCIE 12,914 04:39
114 310 ROBART RUDY 00:48:51 SEM 50 00:13:00 00:12:36 MARQUISE 12,897 04:39
115 343 MOREL ALEXANDRE 00:48:57 V1M 39 00:13:06 00:10:13 NON LICENCIE 12,870 04:40
116 285 PIERRU JULIEN 00:48:58 SEM 51 00:13:07 00:12:43 NON LICENCIE 12,866 04:40
117 145 BREQUEVILLE LIONEL 00:48:59 V1M 40 00:13:08 00:10:15 ATHLETIQUE CLUB CAPELLOIS 12,862 04:40
118 249 BARBAUT ISABELLE 00:49:03 V1F 2 00:13:12 00:02:16 A.S. MARCK 12,844 04:40
119 307 FORYCKI LUDOVIC 00:49:07 SEM 52 00:13:16 00:12:52 NON LICENCIE 12,827 04:41
120 90 ROCHE BERNARD 00:49:08 V2M 10 00:13:17 00:08:37 NON LICENCIE 12,822 04:41
121 242 HARDOIN JEAN-FRANCOIS 00:49:08 V1M 41 00:13:17 00:10:24 SAINT MARTIN ATHLETISME 12,822 04:41
122 299 GODEC RONAN 00:49:09 V1M 42 00:13:18 00:10:25 NON LICENCIE 12,818 04:41
123 58 QUENNEHEN HERVE 00:49:15 V1M 43 00:13:24 00:10:31 PATRIOTES DE GUINES 12,792 04:41
124 136 FERON DIDIER 00:49:16 V2M 11 00:13:25 00:08:45 AMICALE HOSPITALIERS BOULOGNE 12,788 04:42
125 220 NAJMI AICHA 00:49:17 V1F 3 00:13:26 00:02:30 LE DRAPEAU 12,783 04:42
126 143 BEAUGRAND GREGORY 00:49:33 V1M 44 00:13:42 00:10:49 ATHLETIQUE CLUB CAPELLOIS 12,714 04:43
127 46 LEJEUNE FRANCK 00:49:35 V1M 45 00:13:44 00:10:51 NON LICENCIE 12,706 04:43
128 65 DOUCHAIN SEBASTIEN 00:49:37 V1M 46 00:13:46 00:10:53 NON LICENCIE 12,697 04:44
129 116 ANSEL DIDIER 00:49:38 SEM 53 00:13:47 00:13:23 NON LICENCIE 12,693 04:44
130 14 GIGADEN MATHILDE 00:49:40 SEF 4 00:13:49 00:05:08 ATHLETISME CLUB OUTREAU 12,685 04:44
131 303 HADOUX ALAIN 00:49:40 SEM 54 00:13:49 00:13:25 SAINT MARTIN ATHLETISME 12,685 04:44
132 21 LEMOINE BERNARD 00:49:50 V1M 47 00:13:59 00:11:06 ATHLETISME CLUB OUTREAU 12,642 04:45
133 27 MOREL WILLY 00:49:54 V1M 48 00:14:03 00:11:10 ATHLETISME CLUB OUTREAU 12,625 04:45
134 187 CARDON BENOIT 00:50:09 CAM 6 00:14:18 00:14:18 LE DRAPEAU 12,562 04:47
135 245 MALVACHE DOMINIQUE 00:50:12 V1M 49 00:14:21 00:11:28 SAINT MARTIN ATHLETISME 12,550 04:47
136 202 RAVEL MARC 00:50:14 V2M 12 00:14:23 00:09:43 COLEMBERT 12,541 04:47
137 38 WATTEZ ERIC 00:50:14 V2M 13 00:14:23 00:09:43 ATHLETISME CLUB OUTREAU 12,541 04:47
138 24 MAILLOT JEAN-LOUIS 00:50:17 V2M 14 00:14:26 00:09:46 ATHLETISME CLUB OUTREAU 12,529 04:47
139 33 PODEVIN JEAN-PIERRE 00:50:27 V2M 15 00:14:36 00:09:56 ATHLETISME CLUB OUTREAU 12,488 04:48
140 30 NAVET SEBASTIEN 00:50:37 V1M 50 00:14:46 00:11:53 ATHLETISME CLUB OUTREAU 12,446 04:49
141 132 FLOURET LAUGIER STEPHANIE 00:50:39 SEF 5 00:14:48 00:06:07 SPORT PLUS 12,438 04:49
142 251 CAULIER FREDDY 00:50:40 V2M 16 00:14:49 00:10:09 NON LICENCIE 12,434 04:50
143 16 HOCQ BRUNO 00:50:47 V1M 51 00:14:56 00:12:03 ATHLETISME CLUB OUTREAU 12,406 04:50
144 293 CRETEL LAURENT 00:50:50 V1M 52 00:14:59 00:12:06 C.S. NESLES 12,393 04:50
145 121 LELEU GABRIEL 00:50:51 V1M 53 00:15:00 00:12:07 NON LICENCIE 12,389 04:51
146 327 BODEL MAXIME 00:50:52 SEM 55 00:15:01 00:14:37 NON LICENCIE 12,385 04:51
147 273 PERARD FREDDY 00:50:53 V2M 17 00:15:02 00:10:22 SAINT MARTIN ATHLETISME 12,381 04:51
148 292 MAY CLAUDIE 00:50:58 V1F 4 00:15:07 00:04:11 MARQUISE ATHLETISME 12,361 04:51
149 72 BELLEFONTAINE SYLVAIN 00:50:59 SEM 56 00:15:08 00:14:44   12,357 04:51
150 185 DOCQUOIS MICHEL 00:51:01 V1M 54 00:15:10 00:12:17 LE DRAPEAU 12,349 04:52
151 341 PAUCHET JEREMY 00:51:02 SEM 57 00:15:11 00:14:47 NON LICENCIE 12,345 04:52
152 105 COFFIN MICHAEL 00:51:04 SEM 58 00:15:13 00:14:49 TEAM RAKLETTE 12,337 04:52
153 158 OVION SYLVESTRE 00:51:07 V1M 55 00:15:16 00:12:23 ATHLETIQUE CLUB CAPELLOIS 12,325 04:52
154 140 FLEURY CEDRIC 00:51:15 V1M 56 00:15:24 00:12:31 AMICALE HOSPITALIERS BOULOGNE 12,293 04:53
155 173 FONTAINE XAVIER 00:51:17 V2M 18 00:15:26 00:10:46 WIMEREUX RUNNING CLUB 12,285 04:53
156 144 BETENCOURT THIERRY 00:51:19 V1M 57 00:15:28 00:12:35 ATHLETIQUE CLUB CAPELLOIS 12,277 04:53
157 83 LEGALLAIS GUILLAUME 00:51:20 CAM 7 00:15:29 00:15:29 NON LICENCIE 12,273 04:53
158 209 DETHOOR DOMINIQUE 00:51:21 V2M 19 00:15:30 00:10:50 COLEMBERT 12,269 04:53
159 318 BOURBIAUX MICHEL 00:51:24 V3M 4 00:15:33 00:03:34 JOGGING CLUB LICQUOIS 12,257 04:54
160 169 LEBLOND GUILLAUME 00:51:28 SEM 59 00:15:37 00:15:13 NON LICENCIE 12,241 04:54
161 352 LACHERY BRIAC 00:51:30 JUM 6 00:15:39 00:06:33 NON LICENCIE 12,233 04:54
162 197 MARIETTE YVETTE 00:51:34 V2F 1 00:15:43 00:00:00 LE DRAPEAU 12,217 04:55
163 3 BOUHASSOUN MEHDI 00:51:39 V1M 58 00:15:48 00:12:55 ATHLETISME CLUB OUTREAU 12,197 04:55
164 289 GRIERE PHILIPPE 00:51:43 V1M 59 00:15:52 00:12:59 NON LICENCIE 12,182 04:56
165 252 CRETON FABRICE 00:51:44 V1M 60 00:15:53 00:13:00 NON LICENCIE 12,178 04:56
166 101 BRICOURT Maxime 00:51:49 SEM 60 00:15:58 00:15:34 NON LICENCIE 12,158 04:56
167 250 LAMARE CATHIE 00:51:51 V1F 5 00:16:00 00:05:04 NON LICENCIE 12,150 04:56
168 275 HENAUT CEDRIC 00:51:53 V1M 61 00:16:02 00:13:09 NON LICENCIE 12,143 04:56
169 91 DUHAMEL VINCENT 00:51:55 V1M 62 00:16:04 00:13:11 NON LICENCIE 12,135 04:57
170 170 GARENAUX FRANCOIS 00:51:58 V1M 63 00:16:07 00:13:14 WIMEREUX RUNNING CLUB 12,123 04:57
171 141 PETIT ALEXIS 00:52:00 SEM 61 00:16:09 00:15:45 AMICALE HOSPITALIERS BOULOGNE 12,115 04:57
172 40 DEBAS GERARD 00:52:09 V3M 5 00:16:18 00:04:19 US SAMER CYCLO 12,081 04:58
173 223 FRAZER HUGO 00:52:11 SEM 62 00:16:20 00:15:56 LE DRAPEAU 12,073 04:58
174 115 CHARLET JULIEN 00:52:12 SEM 63 00:16:21 00:15:57 NON LICENCIE 12,069 04:58
175 282 TINTILLIER ERIC 00:52:14 V1M 64 00:16:23 00:13:30 COLEMBERT 12,061 04:58
176 192 BERNARD SYLVIE 00:52:16 V1F 6 00:16:25 00:05:29 LE DRAPEAU 12,054 04:59
177 225 PETA JEANNE ESTELLE 00:52:20 V1F 7 00:16:29 00:05:33 LE DRAPEAU 12,038 04:59
178 222 LEDOUX THIERRY 00:52:20 V1M 65 00:16:29 00:13:36 LE DRAPEAU 12,038 04:59
179 112 SART THIERRY 00:52:21 V2M 20 00:16:30 00:11:50 ATHLETISME CLUB OUTREAU 12,034 04:59
180 317 SIX GREGORY 00:52:27 JUM 7 00:16:36 00:07:30 EMA 62 12,011 05:00
181 125 BAILLY JULIEN 00:52:32 SEM 64 00:16:41 00:16:17 SPORT PLUS 11,992 05:00
182 128 BUTEL MARIE 00:52:34 SEF 6 00:16:43 00:08:02 SPORT PLUS 11,985 05:00
183 129 BUTEL DANIEL 00:52:35 V2M 21 00:16:44 00:12:04 SPORT PLUS 11,981 05:00
184 258 GRASSELLI SABRINA 00:52:35 SEF 7 00:16:44 00:08:03 ATHLETISME CLUB OUTREAU 11,981 05:00
185 234 MAQUINGHEN CELINE 00:52:37 SEF 8 00:16:46 00:08:05 SAINT MARTIN ATHLETISME 11,973 05:01
186 337 MARGOLLE CHRISTOPHE 00:52:47 V1M 66 00:16:56 00:14:03 NON LICENCIE 11,936 05:02
187 93 COHEN-SOLAL LAURENCE 00:52:54 V1F 8 00:17:03 00:06:07 JOGGING CLUB LICQUOIS 11,909 05:02
188 193 PAQUES ERIC 00:52:54 V2M 22 00:17:03 00:12:23 LE DRAPEAU 11,909 05:02
189 87 PENNAMEN JEAN-PAUL 00:52:59 V1M 67 00:17:08 00:14:15 NON LICENCIE 11,891 05:03
190 233 CHALOT KEVIN 00:53:02 SEM 65 00:17:11 00:16:47 SAINT MARTIN ATHLETISME 11,879 05:03
191 118 MARTEL ERIC 00:53:05 V2M 23 00:17:14 00:12:34 TEAM TRAIL 62 11,868 05:03
192 290 CORDIER HUGUES 00:53:10 SEM 66 00:17:19 00:16:55 NON LICENCIE 11,850 05:04
193 94 BIGOT MARIE-CHRISTINE 00:53:13 V2F 2 00:17:22 00:01:39 NON LICENCIE 11,838 05:04
194 39 HENQUEZ YVES 00:53:13 V4M 1 00:17:22 00:00:00 PATRIOTES DE GUINES 11,838 05:04
195 230 SAVEANT GUILLAUME 00:53:21 SEM 67 00:17:30 00:17:06 NON LICENCIE 11,809 05:05
196 210 BOULY STEPHANIE 00:53:31 V1F 9 00:17:40 00:06:44 COLEMBERT 11,772 05:06
197 288 LEHMANN PHILIPPE 00:53:31 V2M 24 00:17:40 00:13:00 NON LICENCIE 11,772 05:06
198 114 EVERAERE ANTHONY 00:53:44 JUM 8 00:17:53 00:08:47 MARQUISE ATHLETISME 11,725 05:07
199 95 CONDETTE JEAN LUC 00:53:44 V2M 25 00:17:53 00:13:13 NON LICENCIE 11,725 05:07
200 127 BRIDOUX CHRISTINE 00:53:48 V1F 10 00:17:57 00:07:01 SPORT PLUS 11,710 05:07
201 89 HENEBEL LUC 00:53:51 V1M 68 00:18:00 00:15:07 NON LICENCIE 11,699 05:08
202 201 REBOUCHE PATRICK 00:53:54 V1M 69 00:18:03 00:15:10 COLEMBERT 11,688 05:08
203 15 GOLLIOT DIDIER 00:53:54 V1M 70 00:18:03 00:15:10 ATHLETISME CLUB OUTREAU 11,688 05:08
204 253 HEMBERT CLEMENT 00:53:55 SEM 68 00:18:04 00:17:40 NON LICENCIE 11,685 05:08
205 68 BOCHENT MATTHIEU 00:53:58 SEM 69 00:18:07 00:17:43 NON LICENCIE 11,674 05:08
206 67 RAY ISABELLE 00:54:08 SEF 9 00:18:17 00:09:36 CULTURE DANSE ETAPLES 11,638 05:09
207 134 BRIMEUX PIERRE 00:54:16 V3M 6 00:18:25 00:06:26 AMICALE HOSPITALIERS BOULOGNE 11,609 05:10
208 17 LANGAGNE GAETAN 00:54:19 SEM 70 00:18:28 00:18:04 ATHLETISME CLUB OUTREAU 11,599 05:10
209 51 DACHICOURT BRUNO 00:54:23 V1M 71 00:18:32 00:15:39 NON LICENCIE 11,584 05:11
210 281 LAVERDURE PASCAL 00:54:52 V2M 26 00:19:01 00:14:21 NON LICENCIE 11,482 05:14
211 75 HOLLEVILLE JULIEN 00:55:00 SEM 71 00:19:09 00:18:45   11,455 05:14
212 69 WILLAERT JULIEN 00:55:09 SEM 72 00:19:18 00:18:54 NON LICENCIE 11,423 05:15
213 159 REGNIER CHRISTINE 00:55:12 V1F 11 00:19:21 00:08:25 ATHLETIQUE CLUB CAPELLOIS 11,413 05:15
214 226 LUTTWILLER GUILLAUME 00:55:19 SEM 73 00:19:28 00:19:04 NON LICENCIE 11,389 05:16
215 47 MAILLARD BEATRICE 00:55:20 V1F 12 00:19:29 00:08:33 NON LICENCIE 11,386 05:16
216 283 GOLLIOT SEBASTIEN 00:55:24 V1M 72 00:19:33 00:16:40 JOGGING CLUB LICQUOIS 11,372 05:17
217 218 ANSEL CLAUDE 00:55:26 V2M 27 00:19:35 00:14:55   11,365 05:17
218 100 BERTHE PATRICK 00:55:28 V2M 28 00:19:37 00:14:57 NON LICENCIE 11,358 05:17
219 277 LEGRAND BETTY 00:55:33 SEF 10 00:19:42 00:11:01 NON LICENCIE 11,341 05:17
220 353 LEFORT JEREMY 00:55:33 CAM 8 00:19:42 00:19:42 NON LICENCIE 11,341 05:17
221 276 DEREUDRE JEAN-BAPTISTE 00:55:34 SEM 74 00:19:43 00:19:19 NON LICENCIE 11,338 05:18
222 178 WILLIAMSON NATHALIE 00:55:35 V1F 13 00:19:44 00:08:48 WIMEREUX RUNNING CLUB 11,334 05:18
223 267 BAILLIEU CHRISTIAN 00:55:49 V1M 73 00:19:58 00:17:05 LE DRAPEAU 11,287 05:19
224 182 HANON LILIANE 00:55:53 V2F 3 00:20:02 00:04:19 LE DRAPEAU 11,273 05:19
225 181 HANON JEAN-PIERRE 00:55:53 V2M 29 00:20:02 00:15:22 LE DRAPEAU 11,273 05:19
226 177 LEJEUNE CHARLOTTE 00:55:54 SEF 11 00:20:03 00:11:22 WIMEREUX RUNNING CLUB 11,270 05:19
227 204 MAES ETIENNE 00:55:54 V2M 30 00:20:03 00:15:23 COLEMBERT 11,270 05:19
228 106 BERGAMASCO STEPHANE 00:55:54 V1M 74 00:20:03 00:17:10 TEAM RAKLETTE 11,270 05:19
229 208 DUBOIS CHRISTOPHE 00:55:55 V2M 31 00:20:04 00:15:24 COLEMBERT 11,267 05:20
230 199 WALLET DOMINIQUE 00:56:02 V2M 32 00:20:11 00:15:31 COLEMBERT 11,243 05:20
231 286 DESTREZ CHRISTOPHE 00:56:09 V1M 75 00:20:18 00:17:25 NON LICENCIE 11,220 05:21
232 211 AVISSE SEBASTIEN 00:56:15 SEM 75 00:20:24 00:20:00 COLEMBERT 11,200 05:21
233 217 DEGARDIN DAVID 00:56:17 SEM 76 00:20:26 00:20:02 TEAM RAKLETTE 11,193 05:22
234 139 VASSEUR CHRISTELE 00:56:55 V1F 14 00:21:04 00:10:08 AMICALE HOSPITALIERS BOULOGNE 11,069 05:25
235 216 PLOUVIN ARNAUD 00:57:05 V1M 76 00:21:14 00:18:21 NON LICENCIE 11,036 05:26
236 271 PAQUE ANNE 00:57:22 SEF 12 00:21:31 00:12:50 NON LICENCIE 10,982 05:28
237 60 CARON DIDIER 00:57:34 V1M 77 00:21:43 00:18:50 NON LICENCIE 10,944 05:29
238 280 NZINZI GHISLAIN 00:57:34 SEM 77 00:21:43 00:21:19 NON LICENCIE 10,944 05:29
239 331 PERRODIN VERONIQUE 00:57:40 V2F 4 00:21:49 00:06:06 OPALE TRAIL NATURE 10,925 05:30
240 180 RAMONET MARC 00:57:46 V2M 33 00:21:55 00:17:15 WIMEREUX RUNNING CLUB 10,906 05:30
241 176 HOAREAU FREDERIQUE 00:58:04 V1F 15 00:22:13 00:11:17 WIMEREUX RUNNING CLUB 10,850 05:32
242 44 MAILLARD GAETAN 00:58:13 V2M 34 00:22:22 00:17:42 NON LICENCIE 10,822 05:33
243 34 PODEVIN THIERRY 00:58:15 V2M 35 00:22:24 00:17:44 ATHLETISME CLUB OUTREAU 10,815 05:33
244 18 LEBON MAGALI 00:58:18 SEF 13 00:22:27 00:13:46 ATHLETISME CLUB OUTREAU 10,806 05:33
245 340 GROSSEL STEPHANIE 00:58:29 SEF 14 00:22:38 00:13:57 NON LICENCIE 10,772 05:34
246 194 LEBEGUE THERESE 00:58:30 V2F 5 00:22:39 00:06:56 LE DRAPEAU 10,769 05:34
247 195 BAILLY ISABELLE 00:58:36 V1F 16 00:22:45 00:11:49 LE DRAPEAU 10,751 05:35
248 235 NEGRI PASCALE 00:58:41 V1F 17 00:22:50 00:11:54 SAINT MARTIN ATHLETISME 10,736 05:35
249 152 LEBON AUDREY 00:58:48 SEF 15 00:22:57 00:14:16 ATHLETIQUE CLUB CAPELLOIS 10,714 05:36
250 20 LELAN CEDRIC 00:58:57 V1M 78 00:23:06 00:20:13 ATHLETISME CLUB OUTREAU 10,687 05:37
251 221 POSTA JEAN-FRANCOIS 00:58:58 V2M 36 00:23:07 00:18:27 LE DRAPEAU 10,684 05:37
252 213 DESWARTE LUDOVIC 00:58:58 V1M 79 00:23:07 00:20:14 NON LICENCIE 10,684 05:37
253 270 GODARD PASCAL 00:59:03 V1M 80 00:23:12 00:20:19 X'TREM TEAM 10,669 05:37
254 55 NAVET LAURENT 00:59:11 V1M 81 00:23:20 00:20:27 NON LICENCIE 10,645 05:38
255 308 DIKIEFU MINATADI JELVHIN 00:59:17 V1M 82 00:23:26 00:20:33 MARQUISE 10,627 05:39
256 236 HOCQ ANNE-SOPHIE 00:59:19 V1F 18 00:23:28 00:12:32 NON LICENCIE 10,621 05:39
257 239 BONNARD JULIEN 00:59:22 SEM 78 00:23:31 00:23:07 NON LICENCIE 10,612 05:39
258 238 LEBIHAN CAROLINE 00:59:27 SEF 16 00:23:36 00:14:55 NON LICENCIE 10,597 05:40
259 295 SELLIER DELPHINE 00:59:34 SEF 17 00:23:43 00:15:02 NON LICENCIE 10,576 05:40
260 117 GOBERT GILLES 00:59:35 V2M 37 00:23:44 00:19:04 NON LICENCIE 10,573 05:40
261 219 FAUQUEMBERGUE VERONIQUE 00:59:43 V1F 19 00:23:52 00:12:56 LE DRAPEAU 10,550 05:41
262 247 BOURGAIN YANNICK 00:59:47 SEM 79 00:23:56 00:23:32 NON LICENCIE 10,538 05:42
263 348 SERGENT LAURENT 01:00:01 V2M 38 00:24:10 00:19:30 COLEMBERT 10,497 05:43
264 163 ROBART GUILLAUME 01:00:01 SEM 80 00:24:10 00:23:46 CS NESLES 10,497 05:43
265 344 FOURCROY DANIEL 01:00:05 V3M 7 00:24:14 00:12:15 NON LICENCIE 10,485 05:43
266 274 DIOTALEVI JEROME 01:00:06 V1M 83 00:24:15 00:21:22 NON LICENCIE 10,483 05:43
267 319 PEIGNE VERONIQUE 01:00:08 V2F 6 00:24:17 00:08:34 NON LICENCIE 10,477 05:44
268 29 NAVET FLORENCE 01:00:23 V1F 20 00:24:32 00:13:36 ATHLETISME CLUB OUTREAU 10,433 05:45
269 23 MAILLOT MELANIE 01:00:23 JUF 1 00:24:32 00:00:00 ATHLETISME CLUB OUTREAU 10,433 05:45
270 149 HOLUIGUE FREDERIC 01:00:27 SEM 81 00:24:36 00:24:12 ATHLETIQUE CLUB CAPELLOIS 10,422 05:45
271 151 HOLUIGUE VIRGINIE 01:00:27 SEF 18 00:24:36 00:15:55 ATHLETIQUE CLUB CAPELLOIS 10,422 05:45
272 231 ANDEL CELINE 01:00:42 SEF 19 00:24:51 00:16:10 SAINT MARTIN ATHLETISME 10,379 05:47
273 291 CORDIER LAURENT 01:00:51 SEM 82 00:25:00 00:24:36 NON LICENCIE 10,353 05:48
274 96 MAGNIER BEATRICE 01:00:53 V2F 7 00:25:02 00:09:19 PINK LADIES 10,348 05:48
275 332 TILLIER VIANNEY 01:00:53 SEM 83 00:25:02 00:24:38 NON LICENCIE 10,348 05:48
276 78 PLOUVIER SYLVAIN 01:00:58 SEM 84 00:25:07 00:24:43 AUCUN 10,334 05:48
277 232 SAINT-GEORGES SYLVIE 01:00:59 V1F 21 00:25:08 00:14:12 SAINT-MARTIN ATHLÉTISME 10,331 05:48
278 207 DUSSART MURIEL 01:01:01 V2F 8 00:25:10 00:09:27 COLEMBERT 10,325 05:49
279 175 DURIEZ CLEMENTINE 01:01:04 CAF 1 00:25:13 00:00:00 WIMEREUX RUNNING CLUB 10,317 05:49
280 37 SEGUIN AURORE 01:01:13 SEF 20 00:25:22 00:16:41 ATHLETISME CLUB OUTREAU 10,291 05:50
281 313 DAUVOIS HUGAULT 01:01:30 SEM 85 00:25:39 00:25:15 BOULOGNE ATHLETIQUE CLUB 10,244 05:51
282 316 DUPONT MARGUERITE 01:01:30 SEF 21 00:25:39 00:16:58 BAC 10,244 05:51
283 315 DUPONT MATHILDE 01:01:30 SEF 22 00:25:39 00:16:58 BAC 10,244 05:51
284 339 PRUVOT RENAUD 01:01:39 V1M 84 00:25:48 00:22:55 NON LICENCIE 10,219 05:52
285 269 POURRE PASCAL 01:01:46 V2M 39 00:25:55 00:21:15 NON LICENCIE 10,200 05:53
286 142 PETIT FREDERIC 01:02:07 V2M 40 00:26:16 00:21:36 AMICALE HOSPITALIERS BOULOGNE 10,142 05:55
287 342 COLL NADIA 01:02:10 SEF 23 00:26:19 00:17:38 NON LICENCIE 10,134 05:55
288 137 MINET ROGER 01:02:19 V3M 8 00:26:28 00:14:29 AMICALE HOSPITALIERS BOULOGNE 10,110 05:56
289 80 SCOTTE AURELIEN 01:02:21 SEM 86 00:26:30 00:26:06   10,104 05:56
290 82 BECUE LUCAS 01:02:26 CAM 9 00:26:35 00:26:35 NON LICENCIE 10,091 05:57
291 266 GOURNAY THERESE MARIE 01:02:27 V1F 22 00:26:36 00:15:40 NON LICENCIE 10,088 05:57
292 349 HALLENNE KARINE 01:02:35 V1F 23 00:26:44 00:15:48 TOUQUET OPALE ATHLETISME 10,067 05:58
293 156 LUBASZKA JEAN LUC 01:02:52 V2M 41 00:27:01 00:22:21 ATHLETIQUE CLUB CAPELLOIS 10,021 05:59
294 272 DIOTALEVI VIRGINIE 01:02:56 V1F 24 00:27:05 00:16:09 NON LICENCIE 10,011 06:00
295 279 THOORIS LAURENT 01:02:57 V1M 85 00:27:06 00:24:13 NON LICENCIE 10,008 06:00
296 296 RICHARD CHRISTINE 01:03:13 V1F 25 00:27:22 00:16:26 NON LICENCIE 9,966 06:01
297 297 MILLE FLORENCE 01:03:16 SEF 24 00:27:25 00:18:44 NON LICENCIE 9,958 06:02
298 98 THERY MARTINE 01:03:20 V2F 9 00:27:29 00:11:46 PINK LADIES 9,947 06:02
299 205 GARENAUX FREDERIC 01:03:35 V3M 9 00:27:44 00:15:45 COLEMBERT 9,908 06:03
300 189 CARDON FRANCK 01:03:41 V1M 86 00:27:50 00:24:57 LE DRAPEAU 9,893 06:04
301 174 KERAMBRUN ALEXANDRA 01:03:42 SEF 25 00:27:51 00:19:10 WIMEREUX RUNNING CLUB 9,890 06:04
302 237 LECLERCQ ANNE-MARIE 01:03:44 V3F 1 00:27:53 00:00:00 SAINT MARTIN ATHLETISME 9,885 06:04
303 103 LOISEL VINCENT 01:03:56 V1M 87 00:28:05 00:25:12 TEAM RAKLETTE 9,854 06:05
304 97 MAILLARD NADINE 01:04:20 V3F 2 00:28:29 00:00:36 PINK LADIES 9,793 06:08
305 294 ROBART FRANCOIS 01:04:32 V2M 42 00:28:41 00:24:01 CS NESLES 9,762 06:09
306 42 TREDEZ FABIEN 01:04:35 V2M 43 00:28:44 00:24:04 NON LICENCIE 9,755 06:09
307 336 PAPIN DOMINIQUE 01:04:44 V2F 10 00:28:53 00:13:10 AMICALE HOSPITALIERS BOULOGNE 9,732 06:10
308 335 LANDOUZY SYLVIE 01:04:46 V2F 11 00:28:55 00:13:12 SAINT MARTIN ATHLETISME 9,727 06:10
309 160 HAMY PHILIPPE 01:04:57 V1M 88 00:29:06 00:26:13 RC MONT DE COUPLE 9,700 06:11
310 350 SALMON CHRISTOPHE 01:06:17 V1M 89 00:30:26 00:27:33 NON LICENCIE 9,505 06:19
311 84 COURQUIN OCEANE 01:06:43 JUF 2 00:30:52 00:06:20 NON LICENCIE 9,443 06:21
312 323 BEAUDRAP ISABELLE 01:07:03 SEF 26 00:31:12 00:22:31 NON LICENCIE 9,396 06:23
313 104 DELPLACE JULIE 01:07:39 SEF 27 00:31:48 00:23:07 TEAM RAKLETTE 9,313 06:27
314 268 BONO FRANCK 01:07:40 V1M 90 00:31:49 00:28:56 NON LICENCIE 9,310 06:27
315 333 CAROUGE MARJOLAINE 01:07:42 SEF 28 00:31:51 00:23:10 NON LICENCIE 9,306 06:27
316 320 JOLY EMILIE 01:07:50 SEF 29 00:31:59 00:23:18 NON LICENCIE 9,287 06:28
317 324 BOLARD MELANIE 01:07:50 SEF 30 00:31:59 00:23:18 NON LICENCIE 9,287 06:28
318 203 MARIQUE PERRINE 01:08:35 CAF 2 00:32:44 00:07:31 COLEMBERT 9,186 06:32
319 86 MALFOY MICHEL 01:10:37 V2M 44 00:34:46 00:30:06 SAINT MARTIN ATHLETISME 8,921 06:44
320 88 MALFOY PASCALE 01:10:37 V2F 12 00:34:46 00:19:03 NON LICENCIE 8,921 06:44
321 261 TOUGERON STEPHANIE 01:12:13 V1F 26 00:36:22 00:25:26 SAINT MARTIN ATHLETISME 8,724 06:53
322 188 MODOLO FANNY 01:12:21 V1F 27 00:36:30 00:25:34 LE DRAPEAU 8,708 06:53
323 345 CARON STEPHANE 01:12:57 SEM 87 00:37:06 00:36:42 NON LICENCIE 8,636 06:57
324 74 HOLLEVILLE DELPHINE 01:13:50 SEF 31 00:37:59 00:29:18   8,533 07:02
325 322 LATRY STEPHANE 01:13:51 V2M 45 00:38:00 00:33:20 NON LICENCIE 8,531 07:02
326 123 JOLY ALEXANDRA 01:14:01 SEF 32 00:38:10 00:29:29 NON LICENCIE 8,512 07:03
327 321 BEAUDRAP HELENE 01:14:34 SEF 33 00:38:43 00:30:02 NON LICENCIE 8,449 07:06
328 214 HUDDLESTONE LINDA 01:17:28 SEF 34 00:41:37 00:32:56 NON LICENCIE 8,133 07:23
329 99 LIGNIER MARIE FRANCE 01:18:11 V3F 3 00:42:20 00:14:27 PINK LADIES 8,058 07:27